404 - Page Not Found

404

Error - Page Not Found


Please check the URL.

Otherwise, click here to be redirected to the homepage.

  • Currently

    Reported at Minneapolis, Minneapolis-St. Paul International Airport, MN
    1:53 PM CST FRI FEB 23 2018
  • 32°F0°C
  • Partly Cloudy
    Partly Cloudy
  • Feels Like:25°F-4°CDew Point:21°F-6°CHumidity:64% Winds:SSW 9 mph 14 kph
    Pressure:30.18 in1022 hPaVisibility:10.00 miles16090.00 meters
Time Weather Temp Dew Point
Humidity Winds Visibility Pressure Precipitation
1 hr 24 hr
Tuesday, February 20
00:53 00:53 Partly Cloudy Partly Cloudy 8°F-13°C 2°F-17°C 76% WNW 10 mphWNW 17 kph 10.0 miles16.1 km 30.36 in1028 hPa 0.00 in0.00 mm --
23:53 23:53 Partly Cloudy Partly Cloudy 9°F-13°C 2°F-17°C 73% WNW 12 mphWNW 19 kph 10.0 miles16.1 km 30.33 in1027 hPa 0.00 in0.00 mm --
22:53 22:53 Partly Cloudy Partly Cloudy 10°F-12°C 3°F-16°C 73% WNW 12 mphWNW 19 kph 10.0 miles16.1 km 30.3 in1026 hPa 0.00 in0.00 mm --
21:53 21:53 Mostly Cloudy Mostly Cloudy 12°F-11°C 5°F-15°C 73% WNW 13 mphWNW 20 kph 10.0 miles16.1 km 30.27 in1025 hPa 0.00 in0.00 mm --
20:53 20:53 Partly Cloudy Partly Cloudy 14°F-10°C 6°F-14°C 71% W 13 mphW 20 kph 10.0 miles16.1 km 30.24 in1024 hPa 0.00 in0.00 mm --
19:53 19:53 Partly Cloudy Partly Cloudy 15°F-9°C 7°F-14°C 70% WNW 14 mphWNW 22 kph 10.0 miles16.1 km 30.18 in1022 hPa 0.00 in0.00 mm --
18:53 18:53 Partly Cloudy Partly Cloudy 18°F-8°C 9°F-13°C 68% WNW 13 mphWNW 20 kph 10.0 miles16.1 km 30.15 in1021 hPa 0.00 in0.00 mm --
17:53 17:53 Partly Cloudy Partly Cloudy 19°F-7°C 10°F-12°C 68% WNW 15 mphWNW 24 kph 10.0 miles16.1 km 30.12 in1020 hPa 0.00 in0.00 mm --
16:53 16:53 Partly Cloudy Partly Cloudy 20°F-7°C 11°F-12°C 68% W 15 mphW 24 kph 10.0 miles16.1 km 30.06 in1018 hPa 0.00 in0.00 mm --
16:38 16:38 Partly Cloudy Partly Cloudy 20°F-7°C 11°F-12°C 68% WNW 14 mphWNW 22 kph 10.0 miles16.1 km 30.03 in1017 hPa 0.00 in0.00 mm --
15:53 15:53 Cloudy Cloudy 20°F-7°C 13°F-11°C 74% WNW 16 mphWNW 26 kph 10.0 miles16.1 km 30 in1016 hPa 0.00 in0.00 mm --
14:53 14:53 Cloudy Cloudy 20°F-7°C 14°F-10°C 78% W 13 mphW 20 kph 10.0 miles16.1 km 29.97 in1015 hPa 0.00 in0.00 mm --
14:21 14:21 Cloudy Cloudy 20°F-7°C 14°F-10°C 78% WNW 13 mphWNW 20 kph 10.0 miles16.1 km 29.97 in1015 hPa 0.00 in0.00 mm --
13:53 13:53 Cloudy Cloudy 20°F-7°C 15°F-9°C 81% WNW 14 mphWNW 22 kph 10.0 miles16.1 km 29.97 in1015 hPa 0.00 in0.00 mm --
13:15 13:15 Cloudy Cloudy 19°F-7°C 15°F-9°C 84% WNW 14 mphWNW 22 kph 10.0 miles16.1 km 29.94 in1014 hPa 0.00 in0.00 mm --
12:53 12:53 Cloudy Cloudy 19°F-7°C 15°F-9°C 84% WNW 12 mphWNW 19 kph 10.0 miles16.1 km 29.97 in1015 hPa 0.00 in0.00 mm --
11:53 11:53 Cloudy Cloudy 19°F-7°C 16°F-9°C 88% WNW 9 mphWNW 15 kph 10.0 miles16.1 km 29.91 in1013 hPa 0.00 in0.03 mm --
11:04 11:04 Cloudy With Light Snow Cloudy With Light Snow 18°F-8°C 17°F-8°C 96% NW 8 mphNW 13 kph 9.0 miles14.5 km 29.88 in1012 hPa 0.00 in0.03 mm --
10:53 10:53 Cloudy With Light Snow Cloudy With Light Snow 18°F-8°C 17°F-8°C 96% NW 10 mphNW 17 kph 9.0 miles14.5 km 29.91 in1013 hPa 0.00 in0.03 mm --
10:08 10:08 Cloudy With Light Snow Cloudy With Light Snow 20°F-7°C 18°F-8°C 92% NW 10 mphNW 17 kph 8.0 miles12.9 km 29.91 in1013 hPa 0.00 in0.03 mm --
09:53 09:53 Cloudy With Light Wintry Mix Cloudy With Light Wintry Mix 20°F-7°C 18°F-8°C 92% NW 9 mphNW 15 kph 8.0 miles12.9 km 29.88 in1012 hPa 0.00 in0.03 mm --
09:10 09:10 Cloudy With Light Wintry Mix Cloudy With Light Wintry Mix 20°F-7°C 18°F-8°C 92% NNW 8 mphNNW 13 kph 9.0 miles14.5 km 29.85 in1011 hPa 0.00 in0.03 mm --
08:53 08:53 Cloudy With Light Wintry Mix Cloudy With Light Wintry Mix 20°F-7°C 18°F-8°C 92% NNW 8 mphNNW 13 kph 9.0 miles14.5 km 29.88 in1012 hPa 0.00 in0.03 mm --
08:44 08:44 Cloudy With Light Wintry Mix Cloudy With Light Wintry Mix 20°F-7°C 18°F-8°C 92% N 7 mphN 11 kph 9.0 miles14.5 km 29.88 in1012 hPa 0.00 in0.03 mm --
07:58 07:58 Cloudy Cloudy 20°F-7°C 18°F-8°C 92% NNW 8 mphNNW 13 kph 10.0 miles16.1 km 29.85 in1011 hPa 0.00 in0.03 mm --
07:53 07:53 Cloudy With Light Freezing Drizzle Cloudy With Light Freezing Drizzle 20°F-7°C 18°F-8°C 92% NNW 8 mphNNW 13 kph 10.0 miles16.1 km 29.85 in1011 hPa 0.00 in0.03 mm --
07:22 07:22 Cloudy With Light Freezing Drizzle Cloudy With Light Freezing Drizzle 20°F-7°C 19°F-7°C 96% N 7 mphN 11 kph 5.0 miles8.0 km 29.83 in1010 hPa 0.00 in0.03 mm --
06:48 06:48 Cloudy With Light Freezing Drizzle Cloudy With Light Freezing Drizzle 20°F-7°C 18°F-8°C 92% NNW 7 mphNNW 11 kph 10.0 miles16.1 km 29.85 in1011 hPa 0.00 in0.03 mm --
06:47 06:47 Cloudy With Light Freezing Drizzle Cloudy With Light Freezing Drizzle 19°F-7°C 18°F-8°C 93% NNW 8 mphNNW 13 kph 10.0 miles16.1 km 29.85 in1011 hPa 0.00 in0.03 mm --
06:26 06:26 Cloudy With Mist And Fog Cloudy With Mist And Fog 20°F-7°C 19°F-7°C 96% NNW 7 mphNNW 11 kph 6.0 miles9.7 km 29.85 in1011 hPa 0.00 in0.03 mm --
05:53 05:53 Cloudy With Mist And Fog Cloudy With Mist And Fog 20°F-7°C 19°F-7°C 96% NW 9 mphNW 15 kph 3.0 miles4.8 km 29.85 in1011 hPa 0.02 in12.90 mm --
05:44 05:44 Cloudy With Mist And Fog Cloudy With Mist And Fog 21°F-6°C 20°F-7°C 96% NNW 8 mphNNW 13 kph 2.0 miles3.2 km 29.85 in1011 hPa 0.02 in12.90 mm --
05:17 05:17 Cloudy With Mist And Fog Cloudy With Mist And Fog 20°F-7°C 19°F-7°C 96% NNW 8 mphNNW 13 kph 1.8 miles2.8 km 29.85 in1011 hPa 0.01 in6.45 mm --
05:00 05:00 Cloudy With Mist And Fog Cloudy With Mist And Fog 20°F-7°C 19°F-7°C 96% N 5 mphN 7 kph 3.0 miles4.8 km 29.83 in1010 hPa 0.00 in0.03 mm --
04:53 04:53 Cloudy With Mist And Fog Cloudy With Mist And Fog 20°F-7°C 19°F-7°C 96% CalmCalm 3.0 miles4.8 km 29.85 in1011 hPa 0.03 in19.35 mm --
04:24 04:24 Cloudy With Mist And Fog Cloudy With Mist And Fog 21°F-6°C 18°F-8°C 88% N 6 mphN 9 kph 2.5 miles4.0 km 29.83 in1010 hPa 0.01 in6.45 mm --
04:19 04:19 Cloudy With Mist And Fog Cloudy With Mist And Fog 21°F-6°C 19°F-7°C 92% N 3 mphN 6 kph 4.0 miles6.4 km 29.85 in1011 hPa 0.01 in6.45 mm --
04:05 04:05 Cloudy With Light Snow Cloudy With Light Snow 20°F-7°C 19°F-7°C 96% NNE 6 mphNNE 9 kph 3.0 miles4.8 km 29.83 in1010 hPa 0.00 in0.03 mm --
03:53 03:53 Cloudy With Light Freezing Drizzle Cloudy With Light Freezing Drizzle 20°F-7°C 18°F-8°C 92% NE 14 mphNE 22 kph 10.0 miles16.1 km 29.77 in1008 hPa 0.00 in0.03 mm --
02:53 02:53 Cloudy With Light Freezing Drizzle Cloudy With Light Freezing Drizzle 20°F-7°C 19°F-7°C 96% NE 9 mphNE 15 kph 10.0 miles16.1 km 29.85 in1011 hPa 0.00 in0.03 mm --
02:35 02:35 Cloudy With Light Freezing Drizzle Cloudy With Light Freezing Drizzle 20°F-7°C 19°F-7°C 96% NE 8 mphNE 13 kph 10.0 miles16.1 km 29.85 in1011 hPa 0.00 in0.03 mm --
01:53 01:53 Cloudy With Light Freezing Drizzle Cloudy With Light Freezing Drizzle 21°F-6°C 19°F-7°C 92% NE 10 mphNE 17 kph 10.0 miles16.1 km 29.85 in1011 hPa 0.00 in0.03 mm --
404 - Page Not Found

404

Error - Page Not Found


Please check the URL.

Otherwise, click here to be redirected to the homepage.